Terminal Aerodrome Forecast
Issued by NWS

Current Version | Previous Version | Text Only | Print | Product List | Glossary Off
Versions: 1 2 3 4 5 6 7 8 9 10 11 12 13 14 15 16 17

000
FTUS41 KPBZ 230520
TAFHLG
TAF
KHLG 230520Z 2306/2406 27008KT P6SM BKN060
     FM231400 28015G25KT P6SM BKN035
     FM240000 29008KT P6SM BKN050=

USA.gov is the U.S. government's official web portal to all federal, state and local government web resources and services.